Regional Weather Roundup
Issued by NWS

Home | Current Version | Previous Version | Text Only | Print | Product List | Glossary Off
Versions: 1 2 3 4 5 6 7 8 9 10 11 12 13 14 15 16 17 18 19 20 21 22 23 24 25 26 27 28 29 30 31 32 33 34 35 36 37 38 39 40 41 42 43 44 45 46 47 48 49 50

316
ASUS43 KIND 240709
RWRIN

WEATHER ROUNDUP FOR INDIANA
NATIONAL WEATHER SERVICE INDIANAPOLIS IN
200 AM EST FRI NOV 24 2017

NOTE: "FAIR" INDICATES FEW OR NO CLOUDS BELOW 12,000 FEET WITH NO
SIGNIFICANT WEATHER AND/OR OBSTRUCTIONS TO VISIBILITY.

* - STATION DOES NOT REPORT WEATHER SUCH AS PRECIPITATION OR FOG.

+ - STATION NOT QUALITY CONTROLLED BY THE NATIONAL WEATHER SERVICE.
    USE DATA WITH CAUTION...ESPECIALLY DEWPOINT AND RELATIVE
    HUMIDITY OBSERVATIONS.

INZ001>003-010>013-019-020-240800-
NORTHWEST INDIANA

CITY           SKY/WX    TMP DP  RH WIND       PRES   REMARKS
GARY /AIRPORT/ CLEAR     35  28  77 S5        29.89F WCI  31
KNOX *+        CLEAR     32  27  80 S7        29.91S WCI  26
LA PORTE +     CLEAR     31  25  80 SW5       29.91S WCI  26
MICHIGAN CITY+ CLEAR     34  27  75 S6        29.90F WCI  29
MONTICELLO +   CLEAR     34  23  63 S5        29.92F WCI  30
RENSSELAER +   CLEAR     32  25  74 CALM      29.91F
VALPARAISO     CLEAR     33  25  72 S5        29.90F WCI  29

$$

LMZ046-743>745-240800-
SOUTHERN LAKE MICHIGAN

STATION/POSITION TIME  TEMP    WIND        PRES    WAVE
                       AIR SEA DIR/SP/G            HT
                 (UTC) (F)     (DEG/KT/KT) (MB)    (FT)
BURNS HARBOR     0640   35     180/  9/ 12 1012.5F
MICHIGAN CITY    0640   36     170/ 12/ 13   N/A

$$

INZ004-005-014>016-021>024-240800-
NORTH CENTRAL INDIANA

CITY           SKY/WX    TMP DP  RH WIND       PRES   REMARKS
GOSHEN         CLEAR     34  22  61 S7        29.91S WCI  28
LOGANSPORT +   CLEAR     30  27  86 S6        29.94S WCI  24
PERU/GRISSOM   CLEAR     32  25  77 S8        29.92F WCI  25
ROCHESTER +    CLEAR     36  27  69 S7        29.92F WCI  30
SOUTH BEND     CLEAR     32  25  75 SW6       29.90F WCI  26
WARSAW +       CLEAR     34  23  64 CALM      29.92S

$$

INZ006>009-017-018-025>027-240800-
NORTHEAST INDIANA

CITY           SKY/WX    TMP DP  RH WIND       PRES   REMARKS
AUBURN +       CLEAR     32  23  69 S3        29.93F
FORT WAYNE     PTCLDY    31  25  78 S9        29.93F WCI  23
HUNTINGTON +   CLEAR     32  23  70 SW3       29.93F
KENDALLVILLE + CLEAR     32  23  70 SW7       29.91F WCI  26

$$

INZ028-029-035-036-043>045-051>053-240800-
WEST CENTRAL INDIANA

CITY           SKY/WX    TMP DP  RH WIND       PRES   REMARKS
CRAWFORDSVL +  CLEAR     31  24  74 MISG      29.92F
GREENCASTLE +  CLOUDY    32  21  64 S3        29.95F
LAFAYETTE      CLEAR     32  24  72 CALM      29.93F
TERRE HAUTE    CLOUDY    30  22  72 SE5       29.95F WCI  25

$$

INZ030>032-037>040-046>048-054>057-064-065-240800-
CENTRAL INDIANA

CITY           SKY/WX    TMP DP  RH WIND       PRES   REMARKS
CP ATTERBURY + CLOUDY    27  23  86 CALM      29.99F
FRANKFORT +    CLEAR     35  27  72 S6        29.95F WCI  30
GREENWOOD *+   CLOUDY    35  25  68 S6        29.97F WCI  30
INDIANAPOLIS   CLOUDY    31  23  72 S6        29.96F WCI  25
-EAGLE CREEK   CLOUDY    30  22  72 CALM      29.95F
KOKOMO +       CLEAR     31  25  78 S7        29.95F WCI  24
MARION +       CLEAR     31  25  78 S6        29.95F HAZE    WCI  25
MT COMFORT *+  CLOUDY    30  27  86 S7        29.96F WCI  23
SHELBYVILLE    CLOUDY    29  23  78 S8        29.97F WCI  21
ZIONSVILLE +   CLEAR     31  23  73 S5        29.95F WCI  26

$$

INZ033-034-041-042-049-050-058-059-240800-
EAST CENTRAL INDIANA

CITY           SKY/WX    TMP DP  RH WIND       PRES   REMARKS
MUNCIE         CLEAR     35  24  64 S7        29.95F WCI  29
RICHMOND +     CLOUDY    30  23  74 SW6       29.98F WCI  24

$$

INZ060-061-067>069-081>083-085>088-240800-
SOUTHWEST INDIANA

CITY           SKY/WX    TMP DP  RH WIND       PRES   REMARKS
EVANSVILLE     CLOUDY    34  26  72 CALM      30.00F
HUNTINGBURG +  CLOUDY    34  25  69 S6        30.00F WCI  29
WASHINGTON +   CLOUDY    32  24  71 SE6       29.98F WCI  26

$$

INZ062-063-066-070>080-084-089>092-240800-
SOUTH CENTRAL AND SOUTHEAST INDIANA

CITY           SKY/WX    TMP DP  RH WIND       PRES   REMARKS
BEDFORD +      CLOUDY    30  23  74 S3        29.98F
BLOOMINGTON    CLEAR     30  22  72 CALM      29.97F
MADISON *+     CLOUDY    30  28  93 CALM      30.03S
NORTH VERNON + CLOUDY    27  23  86 CALM      30.01S
SEYMOUR +      CLOUDY    28  25  86 CALM      30.01F

$$





USA.gov is the U.S. government's official web portal to all federal, state and local government web resources and services.